Weather History for Oceana NAS, VA

Change the Weather History Date:

Friday, April 19, 2013

  Actual Average Record
Temperature  
Mean Temperature 74 °F -  
Max Temperature 82 °F 66 °F 89 °F (2002)
Min Temperature 66 °F 47 °F 33 °F (2001)
Cooling Degree Days 9    
Growing Degree Days 24 (Base 50)    
Moisture  
Dew Point 64 °F    
Average Humidity 77    
Maximum Humidity 93    
Minimum Humidity 54    
Precipitation  
Precipitation 0.57 in - - ()
Sea Level Pressure  
Sea Level Pressure 29.92 in    
Wind  
Wind Speed 12 mph (SSW)    
Max Wind Speed 23 mph    
Max Gust Speed 38 mph    
Visibility 9 miles    
Events Rain    
Averages and records for this station are not official NWS values.
T = Trace of Precipitation, MM = Missing Value Source: NWS Daily Summary

Daily Weather History Graph

Daily Weather History Graph

Search for Another Location

Airport:

Trip Planner

Search our weather history database for the weather conditions in past years. The results will help you decide how hot, cold, wet, or windy it might be!

Date:

Astronomy

Apr. 19, 2013 Rise Set
Actual Time 6:24 AM EDT 7:42 PM EDT
Civil Twilight 5:57 AM EDT 8:09 PM EDT
Nautical Twilight 5:25 AM EDT 8:41 PM EDT
Astronomical Twilight 4:51 AM EDT 9:15 PM EDT
Moon 1:33 PM EDT (4/19) 2:29 AM EDT (4/19)
Length of Visible Light 14h 11m
Length of Day
13h 17m
First Quarter, 61% of the Moon is Illuminated
Apr 19
First Quarter
Apr 25
Full
May 2
Last Quarter
May 9
New
May 18
First Quarter

Hourly Weather History & Observations

Time (EDT) Temp. Heat Index Dew Point Humidity Pressure Visibility Wind Dir Wind Speed Gust Speed Precip Events Conditions
12:56 AM 66.0 °F - 62.1 °F 87% 30.08 in 10.0 mi SSE 6.9 mph - N/A   Partly Cloudy
1:56 AM 66.9 °F - 61.0 °F 81% 30.05 in 10.0 mi South 8.1 mph - N/A   Clear
2:56 AM 66.0 °F - 61.0 °F 84% 30.03 in 10.0 mi South 6.9 mph - N/A   Partly Cloudy
3:56 AM 66.0 °F - 62.1 °F 87% 30.00 in 10.0 mi South 11.5 mph 16.1 mph N/A   Partly Cloudy
4:56 AM 66.0 °F - 62.1 °F 87% 29.99 in 10.0 mi South 6.9 mph - N/A   Partly Cloudy
5:40 AM 66.2 °F - 62.6 °F 88% 29.98 in 10.0 mi South 8.1 mph - N/A   Mostly Cloudy
5:56 AM 68.0 °F - 63.0 °F 84% 29.99 in 10.0 mi South 11.5 mph - N/A   Mostly Cloudy
6:35 AM 68.0 °F - 62.6 °F 83% 29.98 in 10.0 mi South 8.1 mph - N/A   Mostly Cloudy
6:56 AM 69.1 °F - 64.0 °F 84% 29.99 in 10.0 mi South 9.2 mph - N/A   Mostly Cloudy
7:56 AM 70.0 °F - 64.9 °F 84% 29.98 in 10.0 mi South 10.4 mph 18.4 mph N/A   Mostly Cloudy
8:27 AM 71.6 °F - 64.4 °F 78% 29.97 in 10.0 mi South 10.4 mph 18.4 mph N/A   Mostly Cloudy
8:39 AM 71.6 °F - 64.4 °F 78% 29.97 in 8.0 mi South 10.4 mph 24.2 mph 0.00 in Rain Light Rain
8:56 AM 69.1 °F - 64.9 °F 87% 29.98 in 2.0 mi SSW 8.1 mph 18.4 mph 0.01 in Rain Light Rain
9:09 AM 68.0 °F - 64.4 °F 88% 29.97 in 1.0 mi SW 13.8 mph - 0.02 in Rain Light Rain
9:28 AM 68.0 °F - 64.4 °F 88% 29.97 in 3.0 mi SSW 10.4 mph - 0.06 in Rain Light Rain
9:54 AM 69.8 °F - 66.2 °F 88% 29.96 in 10.0 mi SSW 5.8 mph - 0.07 in   Mostly Cloudy
9:56 AM 69.1 °F - 66.9 °F 93% 29.97 in 10.0 mi South 9.2 mph - 0.07 in   Mostly Cloudy
10:56 AM 73.9 °F - 66.9 °F 79% 29.96 in 10.0 mi SSW 17.3 mph 20.7 mph N/A   Mostly Cloudy
11:45 AM 75.2 °F - 66.2 °F 73% 29.94 in 10.0 mi SSW 13.8 mph 26.5 mph N/A   Mostly Cloudy
11:56 AM 77.0 °F - 66.0 °F 69% 29.94 in 10.0 mi SSW 16.1 mph 24.2 mph N/A   Mostly Cloudy
12:56 PM 79.0 °F - 63.0 °F 58% 29.92 in 10.0 mi SSW 23.0 mph 33.4 mph N/A   Mostly Cloudy
1:56 PM 82.0 °F 83.4 °F 64.0 °F 54% 29.88 in 10.0 mi SSW 20.7 mph 31.1 mph N/A   Mostly Cloudy
2:56 PM 80.1 °F 82.1 °F 66.0 °F 62% 29.85 in 10.0 mi South 19.6 mph 29.9 mph N/A   Mostly Cloudy
3:56 PM 80.1 °F 81.9 °F 64.9 °F 60% 29.82 in 10.0 mi South 21.9 mph 29.9 mph N/A   Mostly Cloudy
4:56 PM 79.0 °F - 66.9 °F 66% 29.80 in 10.0 mi South 16.1 mph 26.5 mph N/A   Mostly Cloudy
5:56 PM 79.0 °F - 66.0 °F 64% 29.80 in 10.0 mi South 21.9 mph 35.7 mph N/A   Mostly Cloudy
6:56 PM 78.1 °F - 66.9 °F 68% 29.78 in 10.0 mi South 15.0 mph 26.5 mph N/A   Mostly Cloudy
7:56 PM 75.9 °F - 66.0 °F 71% 29.79 in 10.0 mi South 18.4 mph 29.9 mph N/A   Overcast
8:56 PM 75.9 °F - 63.0 °F 64% 29.81 in 10.0 mi SSW 23.0 mph 35.7 mph N/A   Overcast
9:56 PM 75.0 °F - 64.0 °F 69% 29.83 in 10.0 mi SSW 18.4 mph 26.5 mph N/A   Overcast
10:28 PM 75.2 °F - 64.4 °F 69% 29.82 in 10.0 mi SSW 19.6 mph 31.1 mph N/A   Overcast
10:56 PM 75.0 °F - 64.9 °F 71% 29.82 in 10.0 mi SSW 19.6 mph 29.9 mph N/A   Overcast
11:15 PM 66.2 °F - 62.6 °F 88% 29.83 in 1.8 mi WSW 21.9 mph 38.0 mph 0.17 in Rain Heavy Rain
11:56 PM 66.0 °F - 62.1 °F 87% 29.84 in 2.5 mi SW 16.1 mph 27.6 mph 0.49 in Rain Rain